Regional Weather Roundup
Issued by NWS Albany, NY

Home | Current Version | Previous Version | Text Only | Print | Product List | Glossary On
Versions: 1 2 3 4 5 6 7 8 9 10 11 12 13 14 15 16 17 18 19 20 21 22 23 24 25 26
000
ASUS41 KALY 300210
RWRALY

NEW YORK STATE HOURLY WEATHER ROUNDUP
NATIONAL WEATHER SERVICE ALBANY NY
1000 PM EDT WED OCT 29 2014

NOTE: "FAIR" INDICATES FEW OR NO CLOUDS BELOW 12,000 FEET WITH NO
SIGNIFICANT WEATHER AND/OR NO OBSTRUCTIONS TO VISIBILITY.

NYZ032-033-038>043-046>054-057>066-NYZ062>081-300300-
EAST


CITY           SKY/WX    TMP DP  RH WIND       PRES   REMARKS
ALBANY         MOCLDY    47  42  83 CALM      29.93S
GLENS FALLS    MOCLDY    40  34  79 CALM      29.91S
POUGHKEEPSIE   FOG       46  45  96 CALM      29.93S VSB 1
NEWBURGH       PTCLDY    48  48 100 W7        29.93S
MONTGOMERY     PTCLDY    49  45  86 W6        29.93R
WHITE PLAINS   CLOUDY    51  48  89 W7        29.92R
ISLIP          CLOUDY    53  49  86 W8        29.90R
NEW YORK CITY  CLOUDY    55  47  74 NW13      29.94R
CENTRAL PARK   CLOUDY    54  47  77 W9        29.97R
$$

NYZ005>009-017-018-044>046-055-056-300300-
CENTRAL


CITY           SKY/WX    TMP DP  RH WIND       PRES   REMARKS
FULTON         LGT RAIN  48  42  80 W8        29.93R
SYRACUSE       LGT RAIN  50  43  77 W14       29.94R
ROME           CLOUDY    48  43  82 W5        29.93S
ELMIRA         CLOUDY    49  41  74 CALM      29.94R
BINGHAMTON     CLOUDY    47  40  76 CALM      29.93S
MONTICELLO     CLOUDY    43  43 100 CALM      29.95S
$$

NYZ026>034-041>043-300300-
NORTH


CITY           SKY/WX    TMP DP  RH WIND       PRES   REMARKS
WATERTOWN      CLOUDY    52  38  58 W8        29.89S
FORT DRUM      NOT AVBL
MASSENA        CLOUDY    50  39  66 SW10      29.86R
SARANAC LAKE   CLOUDY    42  37  82 W3        29.84
PLATTSBURGH    CLOUDY    48  38  68 VRB5      29.85S
$$

NYZ001>004-010>016-019>021-300300-
WEST


CITY           SKY/WX    TMP DP  RH WIND       PRES   REMARKS
NIAGARA FALLS  MOCLDY    47  36  65 W12       29.97R
BUFFALO        CLOUDY    48  35  60 W7        29.97R
DUNKIRK        CLOUDY    49  38  65 NW9       29.99R
JAMESTOWN      CLOUDY    41  37  87 W10       29.99R
WELLSVILLE     LGT RAIN  43  36  76 NW18G25   29.98R
ROCHESTER      CLOUDY    48  40  73 W6        29.96R
PENN YAN       LGT RAIN  46  42  86 W8G17     29.96R FOG
$$

             KEY
       WCI = WIND CHILL INDEX
       VSB = VISIBILITY
       HX  = HEAT INDEX
$$



USA.gov is the U.S. government's official web portal to all federal, state and local government web resources and services.